Location: Olsztyn
(53.7767°N, 20.4765°E)
Time: 18:23:40
(UTC+02:00)

A-11 Canister half - Pass Details

Date: 19 January 2022
Orbit: 1513 x 1686 km, 47.2° (Epoch: 24 May)

Event Time Altitude Azimuth Distance (km) Brightness Sun altitude
Rises 20:34:29 0° 257° (WSW) 4,688 12.2 -40.2°
Reaches altitude 10° 20:37:35 10° 254° (WSW) 3,692 11.4 -40.6°
Enters shadow 20:43:39 43° 231° (SW) 2,027 9.6 -41.4°
